Date String (YYYY-MM-DD hh:mm:ss) UTC,Instrument flags,Ambient pressure (hPa),Sample flow (lpm),Bypass flow (lpm),Sample temperature (°C),Ambient temperature (°C),ASC tube jacket temperature (°C),LED temperature (°C),Box temperature (°C),Sample RH (%),Span deviation,Mass concentration (μg/m³),Mass concentration (μg/m³),Mass concentration (μg/m³)
DateTimeUTC,F1_M11,P_M11,Q1_M11,Q2_M11,T1_M11,T2_M11,T3_M11,T4_M11,T5_M11,U1_M11,ZSPAN_M11,X0_M11,X2_M11,X1_M11
2021-12-08 11:00:00,,0820.5,4.99,0.00,22.5,22.0,00.0,31.4,24.3,11.9,0000.0,0018.34,0004.96,0003.22
2021-12-08 11:01:00,,0820.5,4.98,0.00,22.5,21.9,00.0,31.4,24.3,11.9,0000.0,0017.83,0005.09,0003.25
2021-12-08 11:02:00,,0820.5,5.01,0.00,22.5,21.9,00.0,31.4,24.3,12.0,0000.0,0018.15,0005.20,0003.28
2021-12-08 11:03:00,,0820.5,5.00,0.00,22.5,21.9,00.0,31.4,24.3,12.0,0000.0,0018.90,0005.29,0003.31
2021-12-08 11:04:00,,0820.5,5.00,0.00,22.5,21.8,00.0,31.4,24.3,11.9,0000.0,0020.44,0005.32,0003.34
2021-12-08 11:05:00,,0820.4,5.00,0.00,22.5,21.8,00.0,31.4,24.2,11.9,0000.0,0020.68,0005.35,0003.35
2021-12-08 11:06:00,,0820.4,5.00,0.00,22.5,21.8,00.0,31.4,24.3,11.9,0000.0,0019.67,0005.33,0003.36
2021-12-08 11:07:00,,0820.4,5.00,0.00,22.5,21.8,00.0,31.4,24.2,11.9,0000.0,0018.92,0005.46,0003.38
2021-12-08 11:08:00,,0820.3,5.01,0.00,22.5,21.8,00.0,31.4,24.2,11.9,0000.0,0018.04,0005.50,0003.40
2021-12-08 11:09:00,,0820.3,4.99,0.00,22.5,21.8,00.0,31.4,24.2,11.9,0000.0,0017.98,0005.56,0003.41
2021-12-08 11:10:00,,0820.3,5.01,0.00,22.5,21.8,00.0,31.4,24.2,12.0,0000.0,0017.83,0005.64,0003.42
2021-12-08 11:11:00,,0820.4,5.01,0.00,22.5,21.8,00.0,31.4,24.2,11.9,0000.0,0018.59,0005.75,0003.45
2021-12-08 11:12:00,,0820.4,5.00,0.00,22.5,21.7,00.0,31.4,24.2,12.0,0000.0,0018.62,0005.73,0003.45
2021-12-08 11:13:00,,0820.5,4.99,0.00,22.4,21.7,00.0,31.4,24.1,11.8,0000.0,0018.15,0005.67,0003.45
2021-12-08 11:14:00,,0820.5,5.02,0.00,22.4,21.6,00.0,31.4,24.0,11.9,0000.0,0017.58,0005.59,0003.43
2021-12-08 11:15:00,,0820.4,4.98,0.00,22.3,21.6,00.0,31.4,24.0,12.0,0000.0,0016.09,0005.62,0003.43
2021-12-08 11:16:00,,0820.3,5.01,0.00,22.3,21.5,00.0,31.4,24.0,12.0,0000.0,0015.53,0005.64,0003.41
2021-12-08 11:17:00,,0820.2,5.00,0.00,22.3,21.5,00.0,31.4,24.0,12.0,0000.0,0016.22,0005.67,0003.40
2021-12-08 11:18:00,,0820.3,5.00,0.00,22.2,21.5,00.0,31.4,23.9,12.0,0000.0,0016.38,0005.60,0003.38
2021-12-08 11:19:00,,0820.3,4.99,0.00,22.2,21.5,00.0,31.3,23.9,12.0,0000.0,0016.35,0005.54,0003.38
2021-12-08 11:20:00,,0820.3,5.00,0.00,22.2,21.4,00.0,31.3,23.9,12.1,0000.0,0015.87,0005.44,0003.37
2021-12-08 11:21:00,,0820.4,5.02,0.00,22.2,21.4,00.0,31.3,23.9,12.1,0000.0,0015.38,0005.35,0003.36
2021-12-08 11:22:00,,0820.4,4.99,0.00,22.2,21.4,00.0,31.3,23.9,12.1,0000.0,0015.73,0005.26,0003.34
2021-12-08 11:23:00,,0820.5,5.00,0.00,22.2,21.4,00.0,31.3,23.8,12.1,0000.0,0015.76,0005.22,0003.34
2021-12-08 11:24:00,,0820.6,4.99,0.00,22.1,21.3,00.0,31.3,23.7,12.0,0000.0,0015.96,0005.22,0003.34
2021-12-08 11:25:00,,0820.6,5.01,0.00,22.1,21.3,00.0,31.2,23.7,12.0,0000.0,0016.17,0005.25,0003.34
2021-12-08 11:26:00,,0820.6,5.00,0.00,22.0,21.2,00.0,31.2,23.7,12.0,0000.0,0016.45,0005.20,0003.32
2021-12-08 11:27:00,,0820.3,4.99,0.00,22.0,21.2,00.0,31.2,23.7,12.0,0000.0,0016.34,0005.10,0003.30
2021-12-08 11:28:00,,0820.2,5.01,0.00,22.0,21.4,00.0,31.2,23.7,12.0,0000.0,0016.02,0005.09,0003.30
2021-12-08 11:29:00,,0820.2,5.00,0.00,22.1,22.1,00.0,31.2,24.0,12.1,0000.0,0016.31,0005.18,0003.30
2021-12-08 11:30:00,,0820.2,4.99,0.00,22.3,22.8,00.0,31.3,24.3,12.0,0000.0,0016.36,0005.27,0003.29
2021-12-08 11:31:00,,0820.2,5.01,0.00,22.4,22.9,00.0,31.3,24.4,12.0,0000.0,0016.98,0005.31,0003.28
2021-12-08 11:32:00,,0820.2,5.00,0.00,22.4,22.7,00.0,31.3,24.3,11.9,0000.0,0017.00,0005.28,0003.27
2021-12-08 11:33:00,,0820.3,5.00,0.00,22.4,22.5,00.0,31.3,24.3,11.8,0000.0,0016.97,0005.23,0003.27
2021-12-08 11:34:00,,0820.4,4.99,0.00,22.4,22.4,00.0,31.3,24.3,11.9,0000.0,0017.48,0005.21,0003.27
2021-12-08 11:35:00,,0820.4,5.00,0.00,22.4,22.2,00.0,31.3,24.1,11.8,0000.0,0017.52,0005.21,0003.27
2021-12-08 11:36:00,,0820.3,5.00,0.00,22.3,22.0,00.0,31.3,24.0,11.9,0000.0,0017.53,0005.20,0003.26
2021-12-08 11:37:00,,0820.2,4.99,0.00,22.3,21.9,00.0,31.3,24.0,12.0,0000.0,0017.56,0005.18,0003.27
2021-12-08 11:38:00,,0820.2,5.02,0.00,22.3,21.8,00.0,31.3,24.0,12.0,0000.0,0017.93,0005.19,0003.28
2021-12-08 11:39:00,,0820.3,4.98,0.00,22.3,21.8,00.0,31.3,24.0,12.0,0000.0,0018.08,0005.24,0003.30
2021-12-08 11:40:00,,0820.3,5.00,0.00,22.3,21.7,00.0,31.3,24.0,11.9,0000.0,0017.95,0005.14,0003.30
2021-12-08 11:41:00,,0820.2,5.01,0.00,22.2,21.6,00.0,31.3,23.9,11.9,0000.0,0018.28,0005.16,0003.30
2021-12-08 11:42:00,,0820.2,4.99,0.00,22.2,21.6,00.0,31.3,23.9,11.8,0000.0,0018.76,0005.17,0003.30
2021-12-08 11:43:00,,0820.2,5.01,0.00,22.2,21.5,00.0,31.3,23.9,11.8,0000.0,0020.31,0005.18,0003.29
2021-12-08 11:44:00,,0820.2,5.00,0.00,22.2,21.5,00.0,31.3,23.9,11.9,0000.0,0019.23,0005.15,0003.26
2021-12-08 11:45:00,,0820.2,4.99,0.00,22.2,21.5,00.0,31.3,23.9,11.8,0000.0,0018.51,0005.15,0003.24
2021-12-08 11:46:00,,0820.1,5.00,0.00,22.2,21.5,00.0,31.3,23.9,11.8,0000.0,0019.33,0005.15,0003.24
2021-12-08 11:47:00,,0820.1,5.01,0.00,22.2,21.5,00.0,31.3,23.9,11.8,0000.0,0019.18,0005.12,0003.23
2021-12-08 11:48:00,,0820.2,4.99,0.00,22.2,21.5,00.0,31.2,23.9,11.8,0000.0,0018.71,0005.08,0003.21
2021-12-08 11:49:00,,0820.2,5.02,0.00,22.2,21.5,00.0,31.2,23.9,11.8,0000.0,0018.41,0005.07,0003.20
2021-12-08 11:50:00,,0820.2,4.99,0.00,22.2,21.5,00.0,31.2,23.9,11.9,0000.0,0018.44,0005.00,0003.19
2021-12-08 11:51:00,,0820.1,5.01,0.00,22.2,21.5,00.0,31.2,23.8,11.9,0000.0,0018.85,0004.97,0003.19
2021-12-08 11:52:00,,0820.0,5.00,0.00,22.1,21.4,00.0,31.2,23.8,11.8,0000.0,0018.29,0004.87,0003.18
2021-12-08 11:53:00,,0820.0,5.00,0.00,22.1,21.4,00.0,31.2,23.8,11.9,0000.0,0017.97,0004.79,0003.18
2021-12-08 11:54:00,,0820.0,4.98,0.00,22.1,21.4,00.0,31.2,23.8,11.9,0000.0,0016.29,0004.73,0003.18
2021-12-08 11:55:00,,0820.1,5.00,0.00,22.1,21.4,00.0,31.2,23.8,11.9,0000.0,0016.76,0004.82,0003.20
2021-12-08 11:56:00,,0820.2,5.00,0.00,22.1,21.4,00.0,31.2,23.8,12.0,0000.0,0017.19,0004.87,0003.22
2021-12-08 11:57:00,,0820.2,4.99,0.00,22.1,21.5,00.0,31.2,23.8,12.0,0000.0,0017.29,0004.86,0003.23
2021-12-08 11:58:00,,0820.1,5.01,0.00,22.2,22.0,00.0,31.2,24.0,11.9,0000.0,0017.20,0004.84,0003.23
2021-12-08 11:59:00,,0820.1,5.00,0.00,22.3,22.7,00.0,31.3,24.2,11.8,0000.0,0017.24,0004.88,0003.24
